Total_Precipitation_Accumulation
0.92 1.31 1.58 1.75 1.82 1.88 1.75 1.96 1.39 1.50 2.38 2.83 2.96 2.04 1.93 1.62 1.19 0.78 0.77 0.60 0.58 0.53
0.70 0.83 1.09 1.78 2.12 2.09 2.56 2.70 2.38 1.82 1.88 1.75 1.47 1.32 1.44 1.02 0.78 1.24 1.10 0.68 0.62 0.55
0.46 0.50 0.62 0.99 1.24 1.64 1.96 3.08 2.80 2.21 2.03 2.04 1.51 1.56 1.55 0.84 0.90 1.23 0.92 0.72 0.98 0.90
0.77 0.78 1.43 0.84 0.93 1.19 1.37 1.68 1.78 2.96 2.37 2.30 2.06 1.94 2.17 1.87 1.95 1.76 1.28 0.96 1.44 1.44
1.46 1.31 1.14 1.09 0.91 1.21 1.57 1.71 2.11 2.73 2.75 2.65 2.26 2.74 2.40 1.92 1.71 1.51 1.16 1.19 1.97 1.21
1.67 1.41 1.55 1.52 1.77 1.74 1.77 2.26 2.68 2.83 3.02 2.71 2.21 2.42 2.45 2.25 1.72 1.29 1.15 1.25 1.50 1.55
1.85 1.70 1.58 1.89 2.25 2.55 2.32 3.05 3.67 3.57 2.65 1.80 1.71 1.51 1.49 1.78 1.96 1.38 0.99 1.61 1.66 1.62
3.07 2.50 2.49 2.43 3.07 3.87 3.35 3.94 4.67 3.49 2.18 1.56 1.54 1.30 1.39 1.36 1.46 1.55 1.42 1.57 1.95 1.80
3.40 3.39 2.83 2.79 2.85 3.20 3.26 3.40 3.52 2.23 1.92 2.11 2.03 2.10 1.60 1.54 1.52 1.84 1.68 1.62 1.72 1.54
2.90 2.55 2.81 3.30 3.25 2.40 2.31 2.37 1.99 1.90 1.88 1.83 2.18 2.02 1.64 1.77 1.62 1.59 1.60 1.69 1.86 1.53
3.41 3.74 3.59 2.86 2.10 1.87 1.87 1.92 2.12 1.69 1.45 2.29 2.03 2.74 2.44 2.35 1.77 1.33 1.37 1.43 1.50 1.50
3.61 2.81 2.45 2.18 2.07 1.93 1.91 1.69 1.76 2.00 2.27 2.55 2.56 2.77 2.46 2.33 1.78 1.41 1.24 1.46 1.30 1.27
4.91 3.63 2.85 3.03 3.22 3.19 3.13 2.75 2.86 3.54 3.53 3.52 2.88 3.09 2.70 1.98 1.50 1.56 1.57 1.38 1.38 2.07
4.80 4.89 4.32 4.33 4.30 4.14 4.16 4.20 3.81 4.02 3.47 3.37 3.10 2.79 2.72 2.86 2.26 2.11 2.39 2.11 2.12 2.14